YAOGAN-30 N (44449 NORAD) Tracking and Keplerian Element Data

This shows tracking and keplerian element data for the satellite.

Feedback or suggestion? Click here.




ElementValue
Catalog44449
NameYAOGAN-30 N
Epoch Orbit327
Epoch Day229.07932403
Epoch Year2019
RAAN207.7354
Inclination34.9955
Eccentricity0.0004668
Argument of Perigee333.8629
Mean Anonmoly26.1847
Mean Motion14.89660446
Decay Rate2.98E-06
L11 44449U 19045A 19229.07932403 .00000298 00000-0 33379-4 0 9993
L22 44449 34.9955 207.7354 0004668 333.8629 26.1847 14.89660446 3276

Live tracking and technical data element details for YAOGAN-30 N (NORAD 44449). YAOGAN-30 N can be tracked NOW for your location showing map with azimuth and elevation plus other details from your city location.

Track the satellite on the map from your city or location and see movement details for azimuth, elevation, latitude, longitude, range, height, and movement on the map or in text.







IsCatalogInMostPopularTable: catalog: 44449, numindb: 5
Update: records affected: 1



GetName: 44449 YAOGAN-30 N

Hit Count: updated at: Wed, 21 Aug 2019 12:42:13 GMT